Time,TemperatureF,DewpointF,PressureIn,WindDirection,WindDirectionDegrees,WindSpeedMPH,WindSpeedGustMPH,Humidity,HourlyPrecipIn,Conditions,Clouds,dailyrainin,SolarRadiationWatts/m^2,SoftwareType,DateUTC
2013-03-12 00:00:00,34.0,22.0,-100.00,West,277,2.0,5.0,59,-99.99,,,0.00,0.000000,,2013-03-12 06:00:00,
2013-03-12 00:42:00,35.0,22.0,-100.00,West,277,2.0,5.0,59,-99.99,,,0.00,0.000000,,2013-03-12 06:42:00,
2013-03-12 00:52:00,34.0,22.0,-100.00,West,277,2.0,5.0,59,-99.99,,,0.00,0.000000,,2013-03-12 06:52:00,
2013-03-12 01:00:00,32.0,-99.9,-100.00,North,-999,-999.0,-999.0,-999,-99.99,,,0.00,,,2013-03-12 07:00:00,
2013-03-12 01:53:00,32.0,-99.9,-100.00,North,-999,-999.0,-999.0,-999,-99.99,,,0.00,,,2013-03-12 07:53:00,
2013-03-12 02:00:00,32.0,23.0,-100.00,SSW,199,1.0,3.0,71,-99.99,,,0.00,0.000000,,2013-03-12 08:00:00,
2013-03-12 03:00:00,30.0,22.0,-100.00,South,184,1.0,3.0,72,-99.99,,,0.00,0.000000,,2013-03-12 09:00:00,
2013-03-12 04:00:00,29.0,22.0,-100.00,South,172,1.0,3.0,76,-99.99,,,-99.99,0.000000,,2013-03-12 10:00:00,
2013-03-12 05:00:00,28.0,22.0,-100.00,South,172,1.0,2.0,78,-99.99,,,-99.99,0.000000,,2013-03-12 11:00:00,
2013-03-12 06:00:00,27.0,22.0,-100.00,South,169,1.0,2.0,80,-99.99,,,-99.99,0.000000,,2013-03-12 12:00:00,
2013-03-12 07:00:00,24.0,19.0,-100.00,West,261,0.0,1.0,83,-99.99,,,-99.99,0.000000,,2013-03-12 13:00:00,
2013-03-12 08:00:00,23.0,20.0,-100.00,SSE,159,0.0,0.0,88,-99.99,,,-99.99,4.900000,,2013-03-12 14:00:00,
2013-03-12 10:00:00,42.0,30.0,-100.00,SSE,152,1.0,3.0,64,-99.99,,,-99.99,445.399994,,2013-03-12 16:00:00,
2013-03-12 10:53:00,42.0,30.0,-100.00,SSE,152,1.0,3.0,64,-99.99,,,-99.99,445.399994,,2013-03-12 16:53:00,
2013-03-12 11:00:00,44.0,21.0,-100.00,NW,316,1.0,4.0,39,-99.99,,,0.00,578.500000,,2013-03-12 17:00:00,
2013-03-12 12:00:00,47.0,21.0,-100.00,NW,306,1.0,5.0,35,-99.99,,,0.00,782.099976,,2013-03-12 18:00:00,
2013-03-12 13:00:00,49.0,20.0,-100.00,NW,311,1.0,4.0,32,-99.99,,,0.00,877.299988,,2013-03-12 19:00:00,
2013-03-12 13:53:00,49.0,20.0,-100.00,NW,311,1.0,4.0,32,-99.99,,,0.00,877.299988,,2013-03-12 19:53:00,
2013-03-12 14:00:00,50.0,18.0,-100.00,NW,305,1.0,5.0,28,-99.99,,,0.00,898.400024,,2013-03-12 20:00:00,
2013-03-12 15:00:00,51.0,19.0,-100.00,NW,315,1.0,4.0,28,-99.99,,,0.00,844.900024,,2013-03-12 21:00:00,
2013-03-12 16:00:00,48.0,17.0,-100.00,NW,325,1.0,6.0,28,-99.99,,,0.00,372.700012,,2013-03-12 22:00:00,
2013-03-12 17:00:00,47.0,17.0,-100.00,WNW,303,1.0,5.0,30,-99.99,,,0.00,70.199997,,2013-03-12 23:00:00,
2013-03-12 18:00:00,44.0,17.0,-100.00,WNW,285,1.0,4.0,34,-99.99,,,0.00,25.600000,,2013-03-13 00:00:00,
2013-03-12 19:00:00,41.0,19.0,-100.00,South,175,1.0,2.0,40,-99.99,,,0.00,22.600000,,2013-03-13 01:00:00,
2013-03-12 20:00:00,37.0,20.0,-100.00,SE,141,0.0,2.0,49,-99.99,,,0.00,0.900000,,2013-03-13 02:00:00,
2013-03-12 21:00:00,35.0,22.0,-100.00,SSE,161,0.0,2.0,59,-99.99,,,0.00,0.000000,,2013-03-13 03:00:00,
2013-03-12 22:00:00,32.0,23.0,-100.00,SSE,147,0.0,3.0,67,-99.99,,,0.00,0.000000,,2013-03-13 04:00:00,
2013-03-12 23:00:00,36.0,26.0,-100.00,SW,230,1.0,4.0,67,-99.99,,,0.00,0.000000,,2013-03-13 05:00:00,